#timestamp,LO_Frequency,Hit,StdDev 
1584246795.5,286047030.9,P
1584246815.3,286047027.3,P
1584246835.2,286047024.4,P
1584246855.9,286047024.1,Y
1584246875.7,286046997.8,P
1584246895.6,286046996.5,N
1584246915.4,286046998.5,N
1584246935.3,286046999.3,N
1584246955.1,286046998.9,N
1584246956.0,286046998.9,N
1584246975.8,286046999.0,N
1584246995.7,286046999.4,N
1584247015.5,286046998.5,N
1584247035.3,286046999.3,N
1584247055.2,286046993.7,N
1584247075.0,286046992.1,N
1584247075.9,286046992.1,N
1584247095.8,286046991.7,N
1584247115.6,286046993.8,N
1584247135.4,286046995.0,N
1584247155.3,286046994.9,N
1584247175.1,286046995.9,N
1584247195.8,286046994.2,N
1584247215.7,286046994.4,N
1584247235.5,286046993.0,N
1584247255.4,286046991.0,N
1584247275.2,286046988.5,N
1584247295.0,286046989.7,N
1584247295.9,286046989.7,N
1584247315.8,286046990.0,N
1584247335.6,286046989.9,N
1584247355.4,286046988.5,N
1584247375.3,286046989.3,N
1584247395.1,286046988.5,N
1584247415.9,286046991.5,N
1584247435.7,286046989.6,N
1584247455.5,286046989.2,N
1584247475.4,286046989.7,N
1584247495.2,286046989.0,Y
1584247515.0,286046996.2,P
1584247516.0,286046996.2,N
1584247535.8,286046995.0,P
1584247555.6,286046997.0,N
1584247575.5,286046996.7,N
1584247595.3,286046999.2,N
1584247615.1,286046997.0,N
1584247635.9,286046995.0,Y
1584247655.7,286046998.7,P
1584247675.6,286047001.1,N
1584247695.4,286047000.8,N
1584247715.2,286047000.0,N
1584247735.1,286047003.8,N
1584247736.0,286047003.8,N
1584247755.8,286047005.4,N
1584247775.7,286047003.3,N
1584247795.5,286047002.9,N
1584247815.3,286047005.9,N
1584247835.2,286047003.4,N
1584247855.0,286047005.9,N
1584247855.9,286047005.9,N
1584247875.7,286047005.8,N
1584247895.6,286047003.4,N
1584247915.4,286047002.5,N
1584247935.3,286047003.9,N
1584247955.1,286047004.0,N
1584247956.0,286047004.0,N
1584247975.8,286047001.6,N
1584247995.7,286047003.9,N
1584248015.5,286047002.1,N
1584248035.4,286046999.8,N
1584248055.2,286047002.3,N
1584248075.0,286047001.5,N
1584248075.9,286047001.5,N
1584248095.8,286047001.6,N
1584248115.6,286047002.2,N
1584248135.4,286047003.8,N
1584248155.3,286047005.6,N
1584248175.1,286047005.9,Y
1584248195.9,286047000.3,P
1584248215.7,286047001.0,N
1584248235.5,286047000.2,N
1584248255.4,286047002.6,N
1584248275.2,286047000.7,N
1584248295.1,286047000.3,N
1584248296.0,286047000.3,N
1584248315.8,286047002.8,N
1584248335.6,286047000.5,N
1584248355.5,286047004.0,Y
1584248375.3,286047002.6,P
1584248395.2,286047004.1,P
